[[{"header":{"parameterUnit":"m.s-1","parameterCategory":1,"la1":30.2991,"la2":30.254,"lo1":-89.0895,"lo2":-89.0444,"dy":0.0017,"dx":0.0017,"nx":28,"ny":28,"refTime":"2025-04-29T09:00:00:Z","depth":0,"parameterNumber":2,"parameterNumberName":"U-component_of_WINDS"},"data":[0,0,0,0,0,0,0,0,0,0,0,0,0,0,0,0,0,0,0,0,0,0,0,0,0,0,0,0,0,0,0,0,0,0,0,0,0,0,0,0,0,0,0,0,0,0,0,0,0,0,0,0,0,0,0,0,0,0,-3.1511,-3.1511,0,-3.1527,-3.1527,-3.1528,-3.1498,-3.1497,-3.1497,-3.1496,-3.1512,-3.1513,-3.1515,0,0,0,0,0,0,0,0,0,0,0,0,0,-3.1455,-3.1456,-3.1511,-3.1511,-3.1511,-3.1527,-3.1527,-3.1528,-3.1499,-3.1497,-3.1496,-3.1495,-3.1511,-3.1513,-3.1515,0,0,0,0,0,0,0,0,0,0,0,0,0,-3.1476,-3.1456,-3.1511,-3.1499,-3.1498,-3.1527,-3.1527,-3.1528,-3.1499,-3.1497,-3.1496,-3.1495,-3.1511,-3.1513,-3.1515,-3.1557,0,0,-3.1521,-3.1522,0,0,0,0,0,0,0,0,-3.1475,-3.1478,-3.15,-3.15,-3.1499,-3.1509,-3.1514,-3.1537,-3.1499,-3.1498,-3.1496,-3.1494,-3.1512,-3.1514,-3.152,-3.1557,-3.1558,-3.1521,-3.1522,-3.1523,-3.1524,0,0,0,0,0,0,0,-3.1473,-3.1477,-3.1517,-3.1501,-3.15,-3.1493,-3.1494,-3.1518,-3.1513,-3.1498,-3.1496,-3.1499,-3.1511,-3.1518,-3.152,-3.1558,-3.1521,-3.1523,-3.1524,-3.1525,-3.1631,-3.1632,0,0,0,0,0,0,-3.1473,-3.1476,-3.1517,-3.1518,-3.1483,-3.1495,-3.1496,-3.1507,-3.1513,-3.1512,-3.15,-3.1497,-3.1516,-3.1518,-3.1521,-3.157,-3.1523,-3.1525,-3.1526,-3.1629,-3.1631,-3.1633,0,0,0,0,0,0,-3.1472,-3.1477,-3.1516,-3.1496,-3.1501,-3.1497,-3.151,-3.1508,-3.1515,-3.1514,-3.1513,-3.1508,-3.1515,-3.1518,-3.1548,-3.157,-3.1526,-3.1528,-3.1627,-3.163,-3.1632,-3.1668,0,0,0,0,0,0,-3.1471,-3.1477,-3.1493,-3.1497,-3.1502,-3.1543,-3.1511,-3.151,-3.1519,-3.1516,-3.1521,-3.1521,-3.1514,-3.1545,-3.155,-3.1572,-3.153,-3.1625,-3.1629,-3.1631,-3.1664,-3.1671,-3.1677,0,0,0,0,0,-3.1469,-3.1502,-3.1493,-3.1499,-3.1521,-3.1544,-3.1547,-3.1538,-3.1521,-3.1536,-3.1536,-3.1521,-3.1567,-3.1549,-3.1554,-3.1576,-3.1624,-3.1628,-3.1631,-3.1662,-3.167,-3.1676,0,0,0,0,0,0,-3.1499,-3.1502,-3.1493,-3.1528,-3.1536,-3.1539,-3.1558,-3.1547,-3.156,-3.1556,-3.1545,-3.1546,-3.1579,-3.1581,-3.156,-3.1617,-3.1593,-3.1598,-3.1614,-3.1622,-3.1628,-3.1625,-3.1531,0,0,0,0,0,-3.1511,-3.1529,-3.153,-3.1561,-3.1566,-3.1562,-3.1571,-3.1564,-3.1572,-3.1575,-3.1576,-3.1585,-3.1601,-3.1612,-3.1627,-3.1666,-3.1666,-3.1684,-3.169,-3.1695,-3.1699,-3.1719,-3.1727,-3.1645,-3.1645,-3.1645,0,0,-3.1533,-3.1537,-3.1549,-3.1568,-3.1573,-3.1592,-3.1565,-3.1586,-3.16,-3.1578,-3.1606,-3.1608,-3.1616,-3.1651,-3.1666,-3.1654,-3.1722,-3.17,-3.1704,-3.1704,-3.1723,-3.1731,-3.1738,-3.1647,-3.1647,-3.1646,0,0,-3.1583,-3.1589,-3.1615,-3.1621,-3.163,-3.1627,-3.1634,-3.1639,-3.1639,-3.1667,-3.1651,-3.1668,-3.1697,-3.1703,-3.1711,-3.1766,-3.1752,-3.1771,-3.1802,-3.1822,-3.1828,-3.1834,-3.1852,-3.1859,-3.1775,-3.1775,-3.1775,0,-3.161,-3.1638,-3.163,-3.1652,-3.1661,-3.1643,-3.1669,-3.1676,-3.1689,-3.1696,-3.1682,-3.1718,-3.1722,-3.1758,-3.1771,-3.1778,-3.1785,-3.1769,-3.1828,-3.1833,-3.1839,-3.1856,-3.1863,-3.1778,-3.1777,-3.1777,-3.1777,0,-3.167,-3.169,-3.171,-3.1723,-3.1735,-3.1759,-3.1755,-3.1767,-3.176,-3.1759,-3.1788,-3.1793,-3.1809,-3.1818,-3.181,-3.1852,-3.1844,-3.183,-3.1804,-3.1849,-3.1865,-3.1872,-3.1781,-3.178,-3.1779,-3.1779,0,0,-3.1737,-3.1747,-3.1755,-3.176,-3.177,-3.1785,-3.1809,-3.1825,-3.1835,-3.1846,-3.1865,-3.1891,-3.1878,-3.1886,-3.188,-3.1898,-3.194,-3.1881,-3.1881,-3.189,-3.1986,-3.1995,-3.2003,-3.1932,-3.1933,-3.1935,-3.1985,0,-3.1786,-3.1827,-3.1821,-3.1861,-3.1879,-3.1864,-3.1885,-3.1893,-3.1893,-3.1909,-3.1909,-3.1927,-3.1909,-3.1913,-3.1931,-3.1931,-3.1959,-3.1928,-3.1949,-3.195,-3.1945,-3.2012,-3.2022,-3.2069,-3.1991,-3.1992,-3.1993,0,-3.1848,-3.1861,-3.1903,-3.1909,-3.1917,-3.1936,-3.195,-3.1965,-3.1975,-3.1974,-3.1984,-3.1975,-3.1999,-3.1975,-3.2008,-3.1987,-3.1997,-3.1998,-3.2,-3.2,-3.1973,-3.2012,-3.2084,-3.209,-3.2003,-3.2002,-3.2002,0,-3.1892,-3.192,-3.1948,-3.1954,-3.1963,-3.1977,-3.1981,-3.1989,-3.1999,-3.2012,-3.2018,-3.2034,-3.2042,-3.2055,-3.2051,-3.2034,-3.2085,-3.206,-3.2084,-3.2084,-3.2093,-3.2092,-3.2165,-3.2102,-3.2102,-3.2102,-3.2102,0,-3.1946,-3.1972,-3.1968,-3.1985,-3.2013,-3.2007,-3.2035,-3.2038,-3.2046,-3.2063,-3.2052,-3.2068,-3.2062,-3.2079,-3.2076,-3.2104,-3.2108,-3.2108,-3.2106,-3.2107,-3.2107,-3.2111,-3.2107,-3.2104,-3.2103,-3.2103,-3.2103,0,-3.1998,-3.1997,-3.2027,-3.2033,-3.2036,-3.2056,-3.2062,-3.2078,-3.2078,-3.2101,-3.2106,-3.2106,-3.2125,-3.2123,-3.2144,-3.2142,-3.2176,-3.2171,-3.2173,-3.2171,-3.2194,-3.2191,-3.2271,-3.2281,-3.2213,-3.2213,-3.2214,0,-3.2032,-3.2051,-3.206,-3.2071,-3.2077,-3.2095,-3.2105,-3.2101,-3.2112,-3.2125,-3.2139,-3.2158,-3.2171,-3.2203,-3.2205,-3.2221,-3.2216,-3.2243,-3.2218,-3.2219,-3.2215,-3.2213,-3.2214,-3.2247,-3.2248,-3.2248,-3.2249,0,-3.2092,-3.209,-3.2106,-3.2121,-3.2134,-3.2146,-3.2157,-3.2167,-3.2163,-3.2177,-3.2196,-3.2207,-3.2229,-3.2247,-3.2263,-3.2268,-3.2258,-3.2257,-3.2263,-3.2264,-3.2263,-3.2262,-3.2184,-3.2255,-3.2254,-3.2254,-3.2253,-3.2253,-3.2135,-3.2151,-3.216,-3.2178,-3.2186,-3.2197,-3.2212,-3.2215,-3.2231,-3.2248,-3.2245,-3.2267,-3.2276,-3.2296,-3.2303,-3.232,-3.231,-3.2319,-3.2321,-3.2323,-3.2325,-3.2262,-3.2323,-3.2323,-3.2323,-3.2323,-3.2323,0,-3.2193,-3.2198,-3.2215,-3.223,-3.2244,-3.2235,-3.2247,-3.2259,-3.2278,-3.2288,-3.2303,-3.2325,-3.2343,-3.2347,-3.2364,-3.2377,-3.2373,-3.2382,-3.238,-3.2381,-3.2334,-3.2326,-3.2385,-3.2385,-3.2385,-3.2385,-3.2385,-3.2385,-3.2224,-3.2252,-3.2252,-3.2283,-3.2288,-3.2309,-3.2317,-3.2327,-3.2334,-3.236,-3.2375,-3.2378,-3.2385,-3.2403,-3.2419,-3.242,-3.2426,-3.2436,-3.2435,-3.239,-3.2384,-3.2378,-3.2371,-3.2438,-3.2438,-3.2481,-3.2481,-3.2482]},{"header":{"parameterUnit":"m.s-1","parameterCategory":1,"la1":30.2991,"la2":30.254,"lo1":-89.0895,"lo2":-89.0444,"dy":0.0017,"dx":0.0017,"nx":28,"ny":28,"refTime":"2025-04-29T09:00:00:Z","depth":0,"parameterNumber":3,"parameterNumberName":"V-component_of_WINDS"},"data":[0,0,0,0,0,0,0,0,0,0,0,0,0,0,0,0,0,0,0,0,0,0,0,0,0,0,0,0,0,0,0,0,0,0,0,0,0,0,0,0,0,0,0,0,0,0,0,0,0,0,0,0,0,0,0,0,0,0,4.1575,4.1576,0,4.1625,4.1625,4.1626,4.1619,4.1619,4.1618,4.1617,4.1662,4.1664,4.1666,0,0,0,0,0,0,0,0,0,0,0,0,0,4.1471,4.1473,4.1575,4.1576,4.1577,4.1624,4.1625,4.1626,4.162,4.1619,4.1618,4.1617,4.1661,4.1664,4.1666,0,0,0,0,0,0,0,0,0,0,0,0,0,4.1518,4.1474,4.1575,4.1579,4.158,4.1624,4.1625,4.1626,4.162,4.1619,4.1617,4.1616,4.1661,4.1663,4.1666,4.1708,0,0,4.1675,4.1676,0,0,0,0,0,0,0,0,4.1515,4.1522,4.1578,4.1579,4.158,4.1615,4.1605,4.1653,4.162,4.1605,4.1617,4.1616,4.1647,4.1651,4.1662,4.171,4.1712,4.1675,4.1677,4.1678,4.1679,0,0,0,0,0,0,0,4.1512,4.1519,4.1595,4.1579,4.158,4.1577,4.1583,4.1614,4.1632,4.1606,4.1606,4.1612,4.1647,4.166,4.1663,4.1712,4.1675,4.1678,4.168,4.1681,4.1796,4.1797,0,0,0,0,0,0,4.1508,4.1517,4.1593,4.1596,4.1544,4.158,4.1586,4.1605,4.1631,4.1634,4.1613,4.1611,4.1655,4.166,4.1665,4.1715,4.1678,4.1681,4.1683,4.1795,4.1796,4.1798,0,0,0,0,0,0,4.1506,4.1515,4.1591,4.1556,4.1566,4.1583,4.1604,4.1606,4.1619,4.1637,4.1639,4.1623,4.1655,4.1661,4.1697,4.1716,4.1682,4.1685,4.1793,4.1795,4.1797,4.1815,0,0,0,0,0,0,4.1503,4.1515,4.1532,4.1557,4.1568,4.1624,4.1605,4.1608,4.1625,4.1623,4.1646,4.1649,4.1654,4.1693,4.17,4.172,4.1687,4.1791,4.1794,4.1796,4.1813,4.1818,4.1822,0,0,0,0,0,4.15,4.1534,4.1532,4.1542,4.159,4.1625,4.1631,4.1638,4.1626,4.1643,4.1654,4.1648,4.1714,4.1697,4.1705,4.1726,4.179,4.1793,4.1796,4.1811,4.1817,4.1822,0,0,0,0,0,0,4.1507,4.1537,4.1536,4.158,4.16,4.1624,4.1645,4.1644,4.1667,4.1664,4.167,4.1675,4.1712,4.1723,4.1704,4.1767,4.175,4.1755,4.1759,4.1764,4.1769,4.1765,4.169,0,0,0,0,0,4.1515,4.1543,4.1566,4.1603,4.1613,4.1628,4.1643,4.1647,4.1668,4.1676,4.169,4.1709,4.1734,4.175,4.1773,4.1815,4.1819,4.1833,4.1837,4.1841,4.1844,4.1867,4.1873,4.1807,4.1807,4.1807,0,0,4.1529,4.1549,4.1566,4.1605,4.1621,4.1649,4.1635,4.1664,4.1684,4.168,4.1716,4.1727,4.1748,4.1787,4.1805,4.1797,4.1864,4.1845,4.1847,4.1849,4.1871,4.1877,4.1882,4.1809,4.1809,4.1809,0,0,4.1569,4.1588,4.162,4.1637,4.1663,4.1673,4.1681,4.1705,4.1713,4.175,4.1747,4.177,4.1812,4.1828,4.1841,4.1889,4.1884,4.1896,4.1918,4.194,4.1945,4.195,4.1966,4.1972,4.19,4.19,4.19,0,4.1583,4.1627,4.1636,4.1667,4.1683,4.1683,4.1715,4.173,4.1762,4.1773,4.1764,4.1818,4.1832,4.1875,4.1887,4.1898,4.1906,4.1893,4.1944,4.1949,4.1953,4.1969,4.1975,4.1901,4.1901,4.1901,4.1901,0,4.1642,4.1672,4.1695,4.1728,4.1747,4.1778,4.1791,4.1809,4.1811,4.1821,4.1858,4.1876,4.1903,4.1914,4.1915,4.1957,4.1951,4.1943,4.1926,4.1961,4.1975,4.1981,4.1903,4.1903,4.1902,4.1902,0,0,4.1688,4.1727,4.1735,4.175,4.1779,4.1801,4.1832,4.1861,4.1876,4.1898,4.1923,4.196,4.1953,4.1968,4.1972,4.1991,4.2027,4.1981,4.1981,4.1988,4.2073,4.2078,4.2085,4.2025,4.2026,4.2027,4.2071,0,4.173,4.1787,4.1796,4.1845,4.1872,4.1873,4.1899,4.1919,4.1929,4.1953,4.1963,4.1989,4.1979,4.1988,4.2007,4.2019,4.2044,4.2016,4.2046,4.2047,4.204,4.2093,4.2098,4.2139,4.2077,4.2078,4.2078,0,4.1787,4.1813,4.1865,4.1891,4.1903,4.1927,4.1954,4.1977,4.1999,4.2006,4.2024,4.2025,4.2055,4.2038,4.2079,4.206,4.2073,4.208,4.2082,4.2084,4.2064,4.2095,4.2152,4.2157,4.2088,4.2087,4.2086,0,4.1814,4.1862,4.1899,4.1912,4.1944,4.1961,4.1974,4.1996,4.2012,4.2036,4.2046,4.2072,4.2086,4.2105,4.2113,4.21,4.2154,4.2137,4.2158,4.2158,4.2168,4.2167,4.2227,4.2179,4.2179,4.2178,4.2178,0,4.1861,4.1892,4.1912,4.1935,4.197,4.198,4.2014,4.2027,4.2046,4.207,4.2072,4.2094,4.2103,4.2127,4.2133,4.2166,4.2172,4.2177,4.2178,4.2176,4.2175,4.2184,4.2181,4.218,4.218,4.2179,4.2179,0,4.1896,4.1911,4.1952,4.1979,4.1987,4.2011,4.2034,4.2055,4.2066,4.2096,4.2104,4.212,4.2148,4.2158,4.2191,4.2195,4.2233,4.2232,4.2226,4.2226,4.2246,4.2244,4.2313,4.2322,4.2268,4.2269,4.2269,0,4.1924,4.1949,4.198,4.1997,4.2012,4.2039,4.2057,4.2068,4.2086,4.2114,4.2132,4.216,4.2183,4.2227,4.224,4.2265,4.2264,4.2287,4.2268,4.2266,4.2264,4.2262,4.2264,4.229,4.229,4.2291,4.2291,0,4.1972,4.1979,4.2006,4.2035,4.2057,4.208,4.2103,4.2116,4.213,4.215,4.218,4.2198,4.2233,4.226,4.2286,4.2298,4.2296,4.2297,4.2303,4.2301,4.2297,4.2299,4.2234,4.2295,4.2295,4.2295,4.2294,4.2294,4.2004,4.2026,4.2052,4.2082,4.21,4.2121,4.2143,4.2158,4.2183,4.2213,4.2218,4.2249,4.227,4.2306,4.2319,4.2343,4.2336,4.2345,4.2347,4.2349,4.235,4.2294,4.2347,4.2347,4.2347,4.2347,4.2347,0,4.2052,4.2069,4.2096,4.2129,4.2152,4.2151,4.2176,4.2195,4.2223,4.2244,4.2267,4.2301,4.2327,4.2344,4.237,4.2386,4.2386,4.2392,4.2391,4.2393,4.2355,4.2346,4.2392,4.2392,4.2392,4.2392,4.2392,4.2392,4.2079,4.2117,4.2126,4.2172,4.2188,4.2221,4.2235,4.2254,4.2271,4.2309,4.2332,4.2343,4.2362,4.239,4.2414,4.2418,4.2427,4.2434,4.2438,4.2401,4.2396,4.2392,4.2384,4.2437,4.2437,4.2474,4.2474,4.2475]}]]